SCP
0 0 0 0 0 0 0 0 0 0 0 0 0 0 0 0 0 0 0 0 0 0 0 0 0 0 0 0 0 0 0 0 0 0 0 0 0 0 0 0 0 0 0 0 0 0 0
0 0 0 0 0 0 0 0 0 0 0 0 0 0 0 0 0 0 0 0 0 0 0 0 0 0 0 0 0 0 0 0 0 0 0 0 0 0 0 0 0 0 0 0 0 0 0
0 0 0 0 0 0 0 0 0 0 0 0 0 0 0 0 0 0 0 0 0 0 0 0 0 0 0 0 0 0 0 0 0 0 0 0 0 0 0 0 0 0 0 0 0 0 0
0 0 0 0 0 0 0 0 0 0 0 0 0 0 0 0 0 0 0 0 0 0 0 0 0 0 0 0 0 0 0 0 0 0 0 0 0 0 0 0 0 0 0 0 0 0 0
0 0 0 0 0 0 0 0 0 0 0 0 0 0 0 0 0 0 0 0 0 0 0 0 0 0 0 0 0 0 0 0 0 0 0 0 0 0 0 0 0 0 0 0 0 0 0
0 0 0 0 0 0 0 0 0 0 0 0 0 0 0 0 0 0 0 0 0 0 0 0 0 0 0 0 0 0 0 0 0 0 0 0 0 0 0 0 0 0 0 0 0 0 0
0 0 0 0 0 0 0 0 0 0 0 0 0 0 0 0 0 0 0 0 0 0 0 0 0 0 0 0 0 0 0 0 0 0 0 0 0 0 0 0 0 0 0 0 0 0 0
0 0 0 0 0 0 0 0 0 0 0 0 0 0 0 0 0 0 0 0 0 0 -0 0 0 0 0 0 0 0 0 0 0 0 0 0 0 0 0 0 0 0 0 0 0 0 0
0 0 0 0 0 0 0 0 0 0 0 0 0 0 0 0 0 0 0 0 0 0 -0 -0 0 0 0 0 0 0 0 0 0 0 0 0 0 0 0 0 0 0 0 0 0 0 0
0 0 0 0 0 0 0 0 0 0 0 0 0 0 0 0 0 0 0 0 0 0 0 0 0 0 0 0 0 0 0 0 0 0 0 0 0 0 0 0 0 0 0 0 0 0 0
0 0 0 0 0 0 0 0 0 0 0 0 0 0 0 0 0 0 0 0 0 0 0 0 0 0 0 0 0 0 0 0 0 0 0 0 0 0 0 0 0 0 0 0 0 0 0
0 0 0 0 0 0 0 0 0 0 0 0 0 0 0 0 0 0 0 0 0 0 0 0 0 0 0 0 0 0 0 0 0 0 0 0 0 0 0 0 0 0 0 0 0 0 0
0 0 0 0 0 0 0 0 0 0 0 0 0 0 0 0 0 0 0 0 0 0 0 0 0 0 0 0 0 0 0 0 0 0 0 0 0 0 0 0 0 0 0 0 0 0 0
0 0 0 0 0 0 0 0 0 0 0 0 0 0 0 0 0 0 0 0 0 0 0 0 0 0 0 0 0 0 0 0 0 0 0 0 0 0 0 0 0 0 0 0 0 0 0
0 0 0 0 0 0 0 0 0 0 0 0 0 0 0 0 0 0 0 0 0 0 0 0 0 0 0 0 0 0 0 0 0 0 0 0 0 0 0 0 0 0 0 0 0 0 0
-0 -0 -0 -0 -0 0 0 0 0 0 0 0 0 0 0 -0 -0 0 0 0 0 0 0 0 0 0 0 0 0 0 0 0 0 0 0 0 0 0 0 0 0 0 0 0 0 0 0
0 0 -0 -0 -0 -0 -0 -0 -0 0 0 0 -0 -0 0 0 -0 0 0 0 0 0 0 0 0 0 0 0 0 0 0 0 0 0 0 0 0 0 0 0 0 0 0 0 0 0 0
0 -0 -0 0 0 -0 -0 -0 -0 -0 0 0 -0 0 -0 -0 0 0 0 0 0 0 0 0 0 0 0 0 0 0 0 0 0 0 0 0 0 0 0 0 0 0 0 0 0 0 0
-0 -0 0 -0 -0 0 0 0 0 0 0 0 0 -0 -0 0 0 0 0 0 0 0 0 0 0 0 0 0 0 0 0 0 0 0 0 0 0 0 0 0 0 0 0 0 0 0 0
0 0 0 0 0 0 0 0 0 0 0 0 0 0 -0 -0 0 0 0 0 -0 -0 0 0 0 0 0 0 0 0 0 0 0 -0 0 0 0 0 0 0 0 0 0 0 0 0 0
0 0 0 0 0 0 0 0 0 0 0 0 0 0 0 -0 0 0 0 0 0 -0 -0 -0 0 0 0 0 0 0 0 0 0 0 0 0 0 0 0 0 0 0 0 0 0 0 0
0 0 0 0 0 0 0 0 0 0 0 0 0 0 0 0 0 -0 0 0 0 -0 -0 0 0 0 0 0 0 0 0 0 0 0 0 0 0 0 0 0 0 0 0 0 0 0 0
0 0 0 0 0 0 0 0 0 0 0 0 0 0 0 0 0 0 0 0 0 -0 -0 -0 0 0 0 0 0 0 0 0 0 0 0 0 0 0 0 0 0 0 0 0 0 0 0
0 0 0 0 0 0 0 0 0 0 0 0 0 0 0 0 0 0 0 0 0 0 -0 -0 -0 -0 -0 -0 0 0 0 0 0 0 -0 0 0 0 0 0 0 0 0 0 0 0 0
0 0 0 0 0 0 0 0 0 0 0 0 0 0 0 0 0 0 0 0 0 0 0 0 -0 0 -0 -0 -0 -0 0 -0 -0 0 0 -0 0 0 0 0 0 0 0 0 0 0 0
0 0 0 0 0 0 0 0 0 0 -0 0 -0 0 0 0 0 0 0 0 0 0 0 0 -0 -0 -0 -0 -0 0 0 0 0 0 0 0 0 0 0 0 0 0 0 0 0 0 0
0 0 0 0 0 0 0 0 -0 -0 -0 0 -0 0 0 0 0 0 0 0 0 0 0 0 0 0 0 -0 -0 -0 -0 -0 0 -0 0 0 0 0 0 0 0 0 0 0 0 0 0
0 0 0 0 0 0 0 -0 0 0 -0 -0 0 0 0 0 0 0 0 0 0 0 0 0 0 0 0 0 -0 -0 -0 0 0 0 0 0 0 0 0 0 0 0 0 0 0 0 0
0 0 0 0 0 0 0 -0 -0 -0 -0 -0 0 0 0 0 0 0 0 0 0 0 0 0 0 0 0 0 0 0 0 0 0 -0 0 -0 0 0 0 0 -0 -0 -0 0 0 0 0
Wind_Speed_500mb
39 36 36 34 34 32 32 31 30 29 28 28 27 28 30 33 37 38 36 34 32 36 36 33 32 30 29 19 27 31 23 20 18 18 24 22 24 10 7 10 11 13 12 21 24 23 24
43 41 39 36 34 32 30 31 30 30 31 32 33 33 34 37 41 45 37 39 37 36 35 35 32 28 25 12 24 24 21 20 19 19 25 29 15 21 12 11 10 12 10 10 19 31 20
36 38 38 37 39 39 38 37 34 31 31 31 33 35 37 40 42 46 42 42 42 42 34 33 31 28 30 48 34 27 21 19 20 22 26 28 27 15 4 9 11 7 10 13 15 15 12
25 26 31 33 32 33 36 37 39 40 41 40 39 38 39 42 44 44 44 46 48 40 32 27 24 24 22 27 30 28 31 29 23 23 27 23 23 17 10 8 6 6 2 7 2 10 6
23 24 28 35 36 36 37 38 40 44 45 44 46 45 43 44 47 46 45 48 46 35 24 19 18 16 18 21 22 28 28 20 18 16 20 19 14 12 4 4 8 5 10 12 14 16 5
23 26 29 30 33 36 36 38 41 44 48 49 49 46 46 46 48 47 43 45 38 28 17 12 17 10 27 16 15 15 22 21 12 12 12 13 10 4 2 8 17 12 11 11 12 11 9
37 38 39 40 43 44 44 43 43 44 49 53 54 51 48 45 44 44 44 40 16 12 13 20 27 35 31 27 17 18 22 22 14 9 10 6 7 18 42 12 4 2 8 10 7 6 9
32 35 38 39 41 46 50 52 53 54 58 59 59 59 58 45 40 41 32 23 17 23 30 46 56 68 64 31 17 31 30 25 17 14 10 2 20 22 2 12 15 11 11 16 12 3 9
37 39 41 43 44 46 46 46 49 49 50 52 58 61 64 60 42 47 24 28 31 34 12 33 44 36 44 45 23 31 44 25 11 15 17 17 10 7 17 9 12 11 15 8 12 5 10
42 43 45 47 49 50 49 50 54 53 55 55 53 54 55 66 41 24 31 24 36 34 6 14 13 14 22 21 13 31 48 20 9 25 14 15 10 12 9 11 16 12 12 8 5 4 9
46 47 46 48 50 52 53 55 53 53 53 53 55 55 54 43 38 29 34 35 36 18 12 4 7 12 19 16 14 12 37 12 14 15 15 14 15 11 9 14 18 10 5 7 4 3 9
43 47 47 49 51 53 56 59 56 61 61 60 56 53 51 55 35 25 33 29 30 3 22 9 8 7 7 6 5 12 12 11 6 9 3 9 2 8 12 5 5 13 11 12 8 5 7
49 49 51 55 51 57 57 57 57 58 60 60 60 56 53 54 59 20 13 15 8 16 5 11 10 12 8 12 9 11 11 14 14 10 14 4 9 6 7 10 5 6 14 2 7 4 14
53 55 56 54 53 56 59 57 59 58 57 59 62 58 61 56 57 31 24 14 25 21 30 3 9 8 16 18 10 15 13 9 15 4 7 14 10 21 14 14 15 14 15 13 16 10 9
53 54 55 56 55 54 56 60 60 62 66 68 73 71 52 56 30 21 24 27 25 36 16 15 5 8 9 10 13 10 19 12 18 26 20 12 11 2 3 4 8 13 12 5 12 5 6
49 52 54 55 56 56 55 59 59 61 63 67 70 67 52 36 27 25 20 55 28 19 4 7 27 21 22 12 16 18 23 11 12 33 3 12 2 3 2 1 3 8 8 6 5 6 9
48 51 53 53 55 56 56 55 58 61 62 68 60 28 33 28 36 24 22 29 17 69 52 4 18 10 11 9 14 11 16 9 15 9 8 6 7 2 4 16 22 8 7 2 6 8 11
51 53 51 54 56 52 53 55 56 59 59 65 31 8 26 54 21 14 11 14 15 37 39 14 15 44 24 27 11 10 18 15 20 19 19 12 5 9 16 3 3 4 11 14 9 12 8
54 53 49 48 53 50 52 53 55 56 54 53 39 32 37 26 7 14 15 24 27 35 34 12 14 12 28 47 26 30 22 9 34 20 16 14 4 2 3 3 6 8 11 9 5 5 15
51 49 47 47 50 49 50 54 57 52 50 47 21 7 13 27 20 11 23 35 16 40 26 29 23 9 28 38 21 31 10 6 7 12 31 23 13 22 22 13 8 11 12 17 7 4 24
51 46 48 49 52 50 50 54 55 56 56 43 7 8 9 7 15 13 11 19 34 19 12 39 10 26 15 10 17 23 16 20 4 8 6 10 15 28 42 19 7 11 10 20 27 47 16
49 51 46 49 51 51 52 53 55 56 61 47 14 9 9 19 27 12 9 9 27 23 10 22 13 36 26 13 18 11 21 14 14 7 15 7 9 16 26 39 46 33 24 23 44 49 38
49 51 54 52 52 53 51 54 57 60 59 49 33 40 33 25 6 4 9 10 16 11 10 8 16 25 33 24 52 56 42 39 34 14 5 8 11 18 40 31 24 22 43 43 13 16 29
55 53 53 57 56 58 57 56 56 55 56 57 62 48 12 9 7 10 18 25 25 23 24 19 18 13 23 46 62 48 46 41 29 30 23 10 3 7 14 10 39 15 23 42 49 51 29
56 57 54 54 57 59 57 59 57 58 54 60 60 43 11 7 16 17 26 18 30 36 23 20 23 23 22 24 11 14 10 10 12 23 19 29 16 8 7 11 6 12 9 7 11 7 20
56 56 54 58 57 61 59 58 60 59 60 55 65 59 43 8 12 26 21 32 19 9 11 18 39 21 21 4 4 10 8 6 11 18 11 24 27 17 8 9 12 7 9 14 8 8 17
56 56 57 58 58 58 59 64 63 63 56 56 61 64 58 15 48 37 16 15 21 9 5 9 20 9 5 3 5 8 11 6 8 8 11 7 9 26 26 19 3 25 20 16 8 6 10
55 56 59 59 61 56 60 64 64 58 52 48 63 59 39 38 79 63 68 47 21 21 9 10 8 9 6 3 6 7 5 4 6 9 6 2 5 8 10 8 5 34 10 10 9 10 5
56 57 58 56 60 56 60 63 62 56 48 49 63 50 63 50 77 65 38 50 64 59 31 16 9 1 7 5 3 2 5 4 7 7 7 7 3 2 7 5 3 20 27 22 14 5 4
Wind_Direction_500mb
46 45 42 39 35 29 24 22 18 15 11 7 3 357 352 349 349 342 334 323 309 302 298 296 293 288 286 270 257 269 267 272 259 239 212 204 194 188 238 244 202 206 222 230 239 243 245
33 31 30 30 27 22 19 15 12 6 360 357 356 353 350 347 346 345 338 334 322 307 295 291 286 278 266 244 265 262 262 263 255 225 211 202 224 202 268 253 236 315 260 252 244 244 239
16 11 11 9 6 2 360 357 356 353 348 346 344 343 342 341 341 343 334 331 327 312 292 280 275 271 263 263 268 263 258 253 248 234 219 219 225 222 221 281 294 311 319 303 237 222 234
10 2 356 357 350 346 346 345 344 340 337 336 335 335 334 333 332 335 334 330 328 316 292 278 262 259 255 263 258 257 254 254 248 236 228 226 231 234 231 295 307 302 338 292 323 137 234
337 332 327 327 328 326 327 326 326 323 325 323 323 327 327 328 327 327 329 329 326 317 302 273 261 248 261 266 257 249 245 237 236 232 217 220 208 217 184 145 323 240 247 216 306 190 143
331 325 322 320 319 318 318 318 316 316 316 313 313 314 315 319 323 323 324 327 320 308 291 270 244 275 244 244 243 233 224 220 208 194 166 175 188 165 74 153 225 203 228 242 226 200 195
313 308 308 308 308 307 305 305 305 307 307 308 308 307 309 310 318 323 324 334 324 298 273 249 277 252 271 242 222 223 206 196 187 183 186 191 160 202 217 221 295 287 225 249 274 208 205
335 334 330 325 317 312 310 310 306 299 296 297 300 304 305 302 314 323 323 325 317 299 297 276 265 256 247 235 224 209 191 175 172 197 138 84 236 223 196 202 227 259 272 264 269 178 197
359 354 350 347 344 341 341 338 335 327 317 311 305 297 291 292 304 313 306 316 321 325 258 284 244 242 238 224 225 211 191 188 168 163 198 186 201 131 189 195 188 222 221 236 246 297 228
360 356 351 348 344 343 341 341 337 334 332 332 328 324 317 297 304 285 309 312 322 334 352 253 218 225 187 171 234 210 194 175 198 194 175 234 231 177 166 203 168 245 208 212 242 24 255
357 353 346 344 341 338 336 334 332 331 331 331 328 329 330 340 310 304 297 300 313 328 284 234 185 172 175 186 141 182 189 191 180 178 136 235 172 174 175 195 164 225 92 123 83 133 345
354 347 345 340 337 331 329 327 326 325 324 322 323 325 325 318 309 278 289 286 304 318 246 286 132 167 140 226 207 135 171 185 158 137 219 243 242 191 200 98 132 143 80 47 55 82 293
354 352 344 340 330 333 326 324 325 319 315 316 315 317 314 309 303 284 275 279 225 222 337 258 201 170 200 191 199 175 174 183 168 123 218 171 210 179 153 97 28 110 106 315 347 4 233
2 359 356 351 344 337 334 330 330 329 324 319 310 306 300 311 312 292 251 221 229 223 222 99 153 137 188 159 223 179 154 208 245 109 120 162 282 165 181 195 173 195 170 164 199 201 248
7 4 0 357 353 347 340 337 335 334 329 326 323 312 305 326 298 229 202 220 216 234 190 163 85 181 273 231 174 155 193 210 206 182 184 155 266 94 44 152 141 181 213 174 103 63 36
0 359 357 356 353 353 352 348 341 338 334 330 326 325 318 316 309 205 215 227 228 247 325 121 219 192 203 211 178 192 172 203 224 195 143 212 85 20 118 104 71 155 170 97 347 170 236
0 358 353 350 349 347 344 342 341 340 339 333 334 329 323 302 307 210 231 233 262 265 283 277 253 276 237 206 205 213 212 223 192 152 114 131 130 9 71 211 178 153 190 175 138 172 178
355 347 345 346 343 343 340 339 338 337 337 336 339 304 330 304 320 292 266 258 259 284 290 290 275 263 276 264 212 233 225 237 154 146 161 196 122 183 198 230 332 272 209 167 145 225 243
346 339 342 341 334 337 334 334 335 340 342 334 320 310 324 313 266 292 288 282 296 317 273 282 265 268 269 260 271 235 228 257 171 171 172 179 223 276 264 358 4 209 198 225 143 94 207
350 350 345 348 348 342 343 341 341 337 335 329 321 305 324 319 297 273 299 299 322 329 304 333 277 273 262 272 267 256 266 275 266 217 207 168 164 185 225 233 132 188 206 198 160 143 236
339 345 345 349 347 346 345 343 339 339 338 319 292 280 287 300 308 300 328 309 305 330 8 357 301 6 5 305 272 271 284 236 276 299 273 162 213 205 230 211 202 194 172 184 206 234 203
323 332 336 335 339 342 343 342 343 341 337 328 237 220 252 264 275 280 275 254 298 311 346 319 356 350 349 334 313 322 348 316 232 7 179 187 244 185 236 233 241 234 218 219 208 227 247
321 321 326 331 326 331 332 334 337 338 343 333 312 273 229 252 219 196 241 237 268 280 278 297 339 339 330 335 323 304 289 273 272 288 287 197 219 211 238 236 234 238 222 221 189 211 212
325 320 320 323 325 325 325 327 328 330 333 333 329 319 264 270 198 227 264 287 284 279 269 261 280 271 268 309 318 296 259 252 248 259 231 282 320 259 246 162 228 223 213 219 223 236 243
331 328 323 321 327 323 323 325 325 324 326 326 331 322 278 263 250 282 262 269 293 290 269 246 244 261 283 307 323 315 331 339 260 242 235 218 219 247 254 235 322 306 53 81 170 101 26
336 334 326 327 327 327 325 327 324 322 320 320 320 324 294 250 248 276 264 253 254 260 307 268 274 274 279 191 128 296 321 275 305 323 210 225 221 223 240 249 231 51 346 320 209 142 25
335 333 330 328 327 330 330 327 323 320 318 318 311 318 305 250 281 261 225 235 232 216 239 303 304 296 238 124 149 215 255 209 279 237 299 357 322 242 225 235 205 336 309 314 201 78 49
334 333 331 329 329 333 331 328 325 324 321 322 309 314 315 297 282 269 264 241 226 233 220 250 350 286 2 65 144 229 217 270 318 296 299 234 315 312 334 317 209 342 30 49 117 139 101
334 333 332 329 327 329 329 331 334 333 329 321 314 330 329 272 272 278 271 262 244 245 248 233 219 198 264 66 353 289 357 318 194 273 330 288 84 310 31 11 45 67 115 118 118 144 330
Wind_Speed_850mb
39 36 36 34 34 32 32 31 30 29 28 28 27 28 30 33 37 38 36 34 32 36 36 33 32 30 29 19 27 31 23 20 18 18 24 22 24 10 7 10 11 13 12 21 24 23 24
43 41 39 36 34 32 30 31 30 30 31 32 33 33 34 37 41 45 37 39 37 36 35 35 32 28 25 12 24 24 21 20 19 19 25 29 15 21 12 11 10 12 10 10 19 31 20
36 38 38 37 39 39 38 37 34 31 31 31 33 35 37 40 42 46 42 42 42 42 34 33 31 28 30 48 34 27 21 19 20 22 26 28 27 15 4 9 11 7 10 13 15 15 12
25 26 31 33 32 33 36 37 39 40 41 40 39 38 39 42 44 44 44 46 48 40 32 27 24 24 22 27 30 28 31 29 23 23 27 23 23 17 10 8 6 6 2 7 2 10 6
23 24 28 35 36 36 37 38 40 44 45 44 46 45 43 44 47 46 45 48 46 35 24 19 18 16 18 21 22 28 28 20 18 16 20 19 14 12 4 4 8 5 10 12 14 16 5
23 26 29 30 33 36 36 38 41 44 48 49 49 46 46 46 48 47 43 45 38 28 17 12 17 10 27 16 15 15 22 21 12 12 12 13 10 4 2 8 17 12 11 11 12 11 9
37 38 39 40 43 44 44 43 43 44 49 53 54 51 48 45 44 44 44 40 16 12 13 20 27 35 31 27 17 18 22 22 14 9 10 6 7 18 42 12 4 2 8 10 7 6 9
32 35 38 39 41 46 50 52 53 54 58 59 59 59 58 45 40 41 32 23 17 23 30 46 56 68 64 31 17 31 30 25 17 14 10 2 20 22 2 12 15 11 11 16 12 3 9
37 39 41 43 44 46 46 46 49 49 50 52 58 61 64 60 42 47 24 28 31 34 12 33 44 36 44 45 23 31 44 25 11 15 17 17 10 7 17 9 12 11 15 8 12 5 10
42 43 45 47 49 50 49 50 54 53 55 55 53 54 55 66 41 24 31 24 36 34 6 14 13 14 22 21 13 31 48 20 9 25 14 15 10 12 9 11 16 12 12 8 5 4 9
46 47 46 48 50 52 53 55 53 53 53 53 55 55 54 43 38 29 34 35 36 18 12 4 7 12 19 16 14 12 37 12 14 15 15 14 15 11 9 14 18 10 5 7 4 3 9
43 47 47 49 51 53 56 59 56 61 61 60 56 53 51 55 35 25 33 29 30 3 22 9 8 7 7 6 5 12 12 11 6 9 3 9 2 8 12 5 5 13 11 12 8 5 7
49 49 51 55 51 57 57 57 57 58 60 60 60 56 53 54 59 20 13 15 8 16 5 11 10 12 8 12 9 11 11 14 14 10 14 4 9 6 7 10 5 6 14 2 7 4 14
53 55 56 54 53 56 59 57 59 58 57 59 62 58 61 56 57 31 24 14 25 21 30 3 9 8 16 18 10 15 13 9 15 4 7 14 10 21 14 14 15 14 15 13 16 10 9
53 54 55 56 55 54 56 60 60 62 66 68 73 71 52 56 30 21 24 27 25 36 16 15 5 8 9 10 13 10 19 12 18 26 20 12 11 2 3 4 8 13 12 5 12 5 6
49 52 54 55 56 56 55 59 59 61 63 67 70 67 52 36 27 25 20 55 28 19 4 7 27 21 22 12 16 18 23 11 12 33 3 12 2 3 2 1 3 8 8 6 5 6 9
48 51 53 53 55 56 56 55 58 61 62 68 60 28 33 28 36 24 22 29 17 69 52 4 18 10 11 9 14 11 16 9 15 9 8 6 7 2 4 16 22 8 7 2 6 8 11
51 53 51 54 56 52 53 55 56 59 59 65 31 8 26 54 21 14 11 14 15 37 39 14 15 44 24 27 11 10 18 15 20 19 19 12 5 9 16 3 3 4 11 14 9 12 8
54 53 49 48 53 50 52 53 55 56 54 53 39 32 37 26 7 14 15 24 27 35 34 12 14 12 28 47 26 30 22 9 34 20 16 14 4 2 3 3 6 8 11 9 5 5 15
51 49 47 47 50 49 50 54 57 52 50 47 21 7 13 27 20 11 23 35 16 40 26 29 23 9 28 38 21 31 10 6 7 12 31 23 13 22 22 13 8 11 12 17 7 4 24
51 46 48 49 52 50 50 54 55 56 56 43 7 8 9 7 15 13 11 19 34 19 12 39 10 26 15 10 17 23 16 20 4 8 6 10 15 28 42 19 7 11 10 20 27 47 16
49 51 46 49 51 51 52 53 55 56 61 47 14 9 9 19 27 12 9 9 27 23 10 22 13 36 26 13 18 11 21 14 14 7 15 7 9 16 26 39 46 33 24 23 44 49 38
49 51 54 52 52 53 51 54 57 60 59 49 33 40 33 25 6 4 9 10 16 11 10 8 16 25 33 24 52 56 42 39 34 14 5 8 11 18 40 31 24 22 43 43 13 16 29
55 53 53 57 56 58 57 56 56 55 56 57 62 48 12 9 7 10 18 25 25 23 24 19 18 13 23 46 62 48 46 41 29 30 23 10 3 7 14 10 39 15 23 42 49 51 29
56 57 54 54 57 59 57 59 57 58 54 60 60 43 11 7 16 17 26 18 30 36 23 20 23 23 22 24 11 14 10 10 12 23 19 29 16 8 7 11 6 12 9 7 11 7 20
56 56 54 58 57 61 59 58 60 59 60 55 65 59 43 8 12 26 21 32 19 9 11 18 39 21 21 4 4 10 8 6 11 18 11 24 27 17 8 9 12 7 9 14 8 8 17
56 56 57 58 58 58 59 64 63 63 56 56 61 64 58 15 48 37 16 15 21 9 5 9 20 9 5 3 5 8 11 6 8 8 11 7 9 26 26 19 3 25 20 16 8 6 10
55 56 59 59 61 56 60 64 64 58 52 48 63 59 39 38 79 63 68 47 21 21 9 10 8 9 6 3 6 7 5 4 6 9 6 2 5 8 10 8 5 34 10 10 9 10 5
56 57 58 56 60 56 60 63 62 56 48 49 63 50 63 50 77 65 38 50 64 59 31 16 9 1 7 5 3 2 5 4 7 7 7 7 3 2 7 5 3 20 27 22 14 5 4
Wind_Direction_850mb
46 45 42 39 35 29 24 22 18 15 11 7 3 357 352 349 349 342 334 323 309 302 298 296 293 288 286 270 257 269 267 272 259 239 212 204 194 188 238 244 202 206 222 230 239 243 245
33 31 30 30 27 22 19 15 12 6 360 357 356 353 350 347 346 345 338 334 322 307 295 291 286 278 266 244 265 262 262 263 255 225 211 202 224 202 268 253 236 315 260 252 244 244 239
16 11 11 9 6 2 360 357 356 353 348 346 344 343 342 341 341 343 334 331 327 312 292 280 275 271 263 263 268 263 258 253 248 234 219 219 225 222 221 281 294 311 319 303 237 222 234
10 2 356 357 350 346 346 345 344 340 337 336 335 335 334 333 332 335 334 330 328 316 292 278 262 259 255 263 258 257 254 254 248 236 228 226 231 234 231 295 307 302 338 292 323 137 234
337 332 327 327 328 326 327 326 326 323 325 323 323 327 327 328 327 327 329 329 326 317 302 273 261 248 261 266 257 249 245 237 236 232 217 220 208 217 184 145 323 240 247 216 306 190 143
331 325 322 320 319 318 318 318 316 316 316 313 313 314 315 319 323 323 324 327 320 308 291 270 244 275 244 244 243 233 224 220 208 194 166 175 188 165 74 153 225 203 228 242 226 200 195
313 308 308 308 308 307 305 305 305 307 307 308 308 307 309 310 318 323 324 334 324 298 273 249 277 252 271 242 222 223 206 196 187 183 186 191 160 202 217 221 295 287 225 249 274 208 205
335 334 330 325 317 312 310 310 306 299 296 297 300 304 305 302 314 323 323 325 317 299 297 276 265 256 247 235 224 209 191 175 172 197 138 84 236 223 196 202 227 259 272 264 269 178 197
359 354 350 347 344 341 341 338 335 327 317 311 305 297 291 292 304 313 306 316 321 325 258 284 244 242 238 224 225 211 191 188 168 163 198 186 201 131 189 195 188 222 221 236 246 297 228
360 356 351 348 344 343 341 341 337 334 332 332 328 324 317 297 304 285 309 312 322 334 352 253 218 225 187 171 234 210 194 175 198 194 175 234 231 177 166 203 168 245 208 212 242 24 255
357 353 346 344 341 338 336 334 332 331 331 331 328 329 330 340 310 304 297 300 313 328 284 234 185 172 175 186 141 182 189 191 180 178 136 235 172 174 175 195 164 225 92 123 83 133 345
354 347 345 340 337 331 329 327 326 325 324 322 323 325 325 318 309 278 289 286 304 318 246 286 132 167 140 226 207 135 171 185 158 137 219 243 242 191 200 98 132 143 80 47 55 82 293
354 352 344 340 330 333 326 324 325 319 315 316 315 317 314 309 303 284 275 279 225 222 337 258 201 170 200 191 199 175 174 183 168 123 218 171 210 179 153 97 28 110 106 315 347 4 233
2 359 356 351 344 337 334 330 330 329 324 319 310 306 300 311 312 292 251 221 229 223 222 99 153 137 188 159 223 179 154 208 245 109 120 162 282 165 181 195 173 195 170 164 199 201 248
7 4 0 357 353 347 340 337 335 334 329 326 323 312 305 326 298 229 202 220 216 234 190 163 85 181 273 231 174 155 193 210 206 182 184 155 266 94 44 152 141 181 213 174 103 63 36
0 359 357 356 353 353 352 348 341 338 334 330 326 325 318 316 309 205 215 227 228 247 325 121 219 192 203 211 178 192 172 203 224 195 143 212 85 20 118 104 71 155 170 97 347 170 236
0 358 353 350 349 347 344 342 341 340 339 333 334 329 323 302 307 210 231 233 262 265 283 277 253 276 237 206 205 213 212 223 192 152 114 131 130 9 71 211 178 153 190 175 138 172 178
355 347 345 346 343 343 340 339 338 337 337 336 339 304 330 304 320 292 266 258 259 284 290 290 275 263 276 264 212 233 225 237 154 146 161 196 122 183 198 230 332 272 209 167 145 225 243
346 339 342 341 334 337 334 334 335 340 342 334 320 310 324 313 266 292 288 282 296 317 273 282 265 268 269 260 271 235 228 257 171 171 172 179 223 276 264 358 4 209 198 225 143 94 207
350 350 345 348 348 342 343 341 341 337 335 329 321 305 324 319 297 273 299 299 322 329 304 333 277 273 262 272 267 256 266 275 266 217 207 168 164 185 225 233 132 188 206 198 160 143 236
339 345 345 349 347 346 345 343 339 339 338 319 292 280 287 300 308 300 328 309 305 330 8 357 301 6 5 305 272 271 284 236 276 299 273 162 213 205 230 211 202 194 172 184 206 234 203
323 332 336 335 339 342 343 342 343 341 337 328 237 220 252 264 275 280 275 254 298 311 346 319 356 350 349 334 313 322 348 316 232 7 179 187 244 185 236 233 241 234 218 219 208 227 247
321 321 326 331 326 331 332 334 337 338 343 333 312 273 229 252 219 196 241 237 268 280 278 297 339 339 330 335 323 304 289 273 272 288 287 197 219 211 238 236 234 238 222 221 189 211 212
325 320 320 323 325 325 325 327 328 330 333 333 329 319 264 270 198 227 264 287 284 279 269 261 280 271 268 309 318 296 259 252 248 259 231 282 320 259 246 162 228 223 213 219 223 236 243
331 328 323 321 327 323 323 325 325 324 326 326 331 322 278 263 250 282 262 269 293 290 269 246 244 261 283 307 323 315 331 339 260 242 235 218 219 247 254 235 322 306 53 81 170 101 26
336 334 326 327 327 327 325 327 324 322 320 320 320 324 294 250 248 276 264 253 254 260 307 268 274 274 279 191 128 296 321 275 305 323 210 225 221 223 240 249 231 51 346 320 209 142 25
335 333 330 328 327 330 330 327 323 320 318 318 311 318 305 250 281 261 225 235 232 216 239 303 304 296 238 124 149 215 255 209 279 237 299 357 322 242 225 235 205 336 309 314 201 78 49
334 333 331 329 329 333 331 328 325 324 321 322 309 314 315 297 282 269 264 241 226 233 220 250 350 286 2 65 144 229 217 270 318 296 299 234 315 312 334 317 209 342 30 49 117 139 101
334 333 332 329 327 329 329 331 334 333 329 321 314 330 329 272 272 278 271 262 244 245 248 233 219 198 264 66 353 289 357 318 194 273 330 288 84 310 31 11 45 67 115 118 118 144 330